This demonstration page uses our WeatherBlox Daily Observations layout. Learn more.

Left ArrowRight Arrow

39.12711, -84.51439

Hourly Observations for October 7, 2020

Temp ( °F °C ) Dew Point ( °F °C ) Humidity (%) Winds ( mph kmh ) Pressure ( in mb ) Visibility ( mi km ) Precip ( " mm )
12:53 am 00:53 Clear 49 9.4 45 7.2 86 86 Calm 29.99 1016 10 16 0.00 0.00
1:53 am 01:53 Clear 50 10 43 6.1 77 77 Calm 29.98 1015 10 16 0.00 0.00
2:53 am 02:53 Clear 52 11.1 45 7.2 77 77 Calm 29.97 1015 10 16 0.00 0.00
3:53 am 03:53 Clear 50 10 45 7.2 83 83 Calm 29.97 1015 10 16 0.00 0.00
4:53 am 04:53 Clear 50 10 45 7.2 83 83 Calm 29.96 1015 10 16 0.00 0.00
5:53 am 05:53 Clear 50 10 44 6.7 80 80 Calm 29.96 1015 10 16 0.00 0.00
6:53 am 06:53 Clear 52 11.1 44 6.7 75 75 Calm 29.97 1015 10 16 0.00 0.00
7:53 am 07:53 Sunny 54 12.2 44 6.7 69 69 Calm 29.97 1015 10 16 0.00 0.00
8:53 am 08:53 Sunny 56 13.3 48 8.9 75 75 S 7 11 29.98 1015 10 16 0.00 0.00
9:53 am 09:53 Sunny 62 16.7 50 10 65 65 S 8 13 29.98 1015 10 16 0.00 0.00
10:53 am 10:53 Sunny 67 19.4 51 10.6 57 57 VRB 7 11 29.96 1015 10 16 0.00 0.00
11:53 am 11:53 Sunny 73 22.8 54 12.2 51 51 WSW 14 22 29.95 1014 10 16 0.00 0.00
12:53 pm 12:53 Sunny 77 25 55 12.8 47 47 SW 14 22 29.94 1014 10 16 0.00 0.00
1:53 pm 13:53 Sunny 80 26.7 54 12.2 41 41 WSW 14 22 29.91 1013 10 16 0.00 0.00
2:53 pm 14:53 Sunny 84 28.9 55 12.8 37 37 W 16 26 29.89 1012 10 16 0.00 0.00
3:53 pm 15:53 Sunny 84 28.9 53 11.7 34 34 W 15 24 29.89 1012 10 16 0.00 0.00
4:53 pm 16:53 Sunny 85 29.4 53 11.7 33 33 WNW 9 15 29.88 1012 10 16 0.00 0.00
5:53 pm 17:53 Sunny 83 28.3 51 10.6 33 33 W 8 13 29.90 1012 10 16 0.00 0.00
6:53 pm 18:53 Sunny 79 26.1 52 11.1 39 39 W 8 13 29.92 1013 10 16 0.00 0.00
7:53 pm 19:53 Clear 67 19.4 56 13.3 68 68 Calm 29.94 1014 10 16 0.00 0.00
8:53 pm 20:53 Clear 64 17.8 57 13.9 78 78 Calm 29.96 1015 10 16 0.00 0.00
9:53 pm 21:53 Clear 60 15.6 56 13.3 86 86 Calm 29.98 1015 10 16 0.00 0.00
10:53 pm 22:53 Clear 63 17.2 50 10 63 63 N 5 7 30.02 1017 10 16 0.00 0.00
11:53 pm 23:53 Clear 55 12.8 51 10.6 87 87 Calm 30.04 1017 10 16 0.00 0.00

Powered by AerisWeather